"2009-10-08 00:00:00",1307806,1.589,138.3,5.129,0.186,14.19,105.8771,14.32,15.29,27.17,0,110.5,13.29,15.12,100.3
"2009-10-08 00:00:30",1307807,1.045,142.9,9.81,0.267,14.25,105.8684,14.3,15.27,27.43,0,110.5,13.29,15.10,104.9
"2009-10-08 00:01:00",1307808,0.966,136.4,8.69,0.14,14.12,105.8491,14.25,15.27,27.45,0,110.5,13.29,15.05,98.4
"2009-10-08 00:01:30",1307809,0.927,148.3,11.67,0.142,14.11,105.8466,14.24,15.26,27.71,0,110.5,13.29,15.04,110.3
"2009-10-08 00:02:00",1307810,0.356,160.1,22.41,0.25,14.07,105.8466,14.24,15.25,27.81,0,110.5,13.29,15.04,122.1
"2009-10-08 00:02:30",1307811,0.348,245.1,8.99,0.182,13.88,105.8463,14.24,15.23,27.91,0,110.5,13.29,15.04,207.1
"2009-10-08 00:03:00",1307812,0.17,3.158,75.96,0.169,14.02,105.8466,14.24,15.23,28.08,0,110.5,13.29,15.04,325.2
"2009-10-08 00:03:30",1307813,0.214,340.6,25.59,0.093,14,105.846,14.24,15.22,28.08,0,110.6,13.29,15.04,302.6
"2009-10-08 00:04:00",1307814,0.353,110.8,60.88,0.22,13.93,105.8466,14.24,15.2,28.04,0,110.6,13.29,15.04,72.8
"2009-10-08 00:04:30",1307815,0.481,76.42,22.16,0.227,13.89,105.8466,14.24,15.21,28.44,0,110.6,13.29,15.04,38.4
"2009-10-08 00:05:00",1307816,0.886,132.6,5.386,0.265,13.95,105.8463,14.24,15.21,28.08,0,110.6,13.29,15.04,94.6
"2009-10-08 00:05:30",1307817,0.786,124.4,14.28,0.131,13.98,105.8466,14.24,15.22,27.63,0,110.6,13.29,15.04,86.4
"2009-10-08 00:06:00",1307818,1.048,155.9,10.2,0.327,14.02,105.8466,14.24,15.23,27.53,0,110.6,13.29,15.04,117.9
"2009-10-08 00:06:30",1307819,0.94,159.4,9.41,0.105,14.14,105.8466,14.24,15.22,27.56,0,110.6,13.29,15.04,121.4
"2009-10-08 00:07:00",1307820,0.768,152,12.46,0.125,14.08,105.8466,14.24,15.22,27.56,0,110.6,13.29,15.04,114.0
"2009-10-08 00:07:30",1307821,0.52,166.1,11.54,0.172,14.11,105.8466,14.24,15.23,27.76,0,110.6,13.29,15.04,128.1
"2009-10-08 00:08:00",1307822,0.956,142.6,11.3,0.149,14.04,105.8466,14.24,15.24,27.88,0,110.6,13.29,15.04,104.6
"2009-10-08 00:08:30",1307823,1.484,133,8.06,0.226,14.1,105.8466,14.24,15.23,27.58,0,110.6,13.29,15.04,95.0
"2009-10-08 00:09:00",1307824,1.213,129.7,9.01,0.141,14.17,105.8466,14.24,15.22,27.58,0,110.5,13.29,15.04,91.7
"2009-10-08 00:09:30",1307825,1.302,153.6,8.73,0.186,14.15,105.8466,14.24,15.22,27.38,0,110.6,13.3,15.04,115.6
"2009-10-08 00:10:00",1307826,1.852,135.7,7.463,0.169,14.23,105.8466,14.24,15.22,27.28,0,110.5,13.3,15.04,97.7
"2009-10-08 00:10:30",1307827,2.683,146.5,9.51,1.456,16.46,105.8466,14.24,15.32,27.17,0,110.6,13.26,15.04,108.5
"2009-10-08 00:11:00",1307828,1.3,183.2,23,1.157,15.64,105.8466,14.24,15.39,28.18,0,110.6,13.26,15.04,145.2
"2009-10-08 00:11:30",1307829,1.106,140.9,17.21,0.312,13.94,105.8466,14.24,15.23,28.02,0,110.5,13.29,15.04,102.9
"2009-10-08 00:12:00",1307830,1.35,144.5,9.09,0.347,13.81,105.8466,14.24,15.23,28.1,0,110.5,13.29,15.04,106.5
"2009-10-08 00:12:30",1307831,2.247,136.5,3.757,0.121,13.85,105.8466,14.24,15.23,27.24,0,110.5,13.29,15.04,98.5
"2009-10-08 00:13:00",1307832,1.974,142.6,12.22,0.253,13.96,105.8466,14.24,15.22,26.38,0,110.5,13.29,15.04,104.6
"2009-10-08 00:13:30",1307833,2.304,154.9,8.78,1.647,16.09,105.8466,14.24,15.39,26.93,0,110.5,13.25,15.04,116.9
"2009-10-08 00:14:00",1307834,2.047,130.7,8,0.669,13.78,105.8466,14.24,15.22,26.9,0,110.5,13.25,15.04,92.7
"2009-10-08 00:14:30",1307835,2.245,135.1,17.95,0.898,14.71,105.8457,14.24,15.39,26.72,0,110.5,13.25,15.04,97.1
"2009-10-08 00:15:00",1307836,2.901,140,8.44,1.458,15.69,105.8395,14.22,15.3,26.67,0,110.5,13.25,15.02,102.0
"2009-10-08 00:15:30",1307837,3.048,140.8,13.99,1.125,14.69,105.8314,14.2,15.24,26.75,0,110.5,13.25,15.00,102.8
"2009-10-08 00:16:00",1307838,2.423,132.9,6.843,0.141,12.53,105.8164,14.16,15.28,26.41,0,110.5,13.29,14.96,94.9
"2009-10-08 00:16:30",1307839,2.121,147.1,12.04,0.419,12.34,105.8128,14.15,15.2,26.25,0,110.5,13.29,14.95,109.1
"2009-10-08 00:17:00",1307840,2.339,136.7,1.567,0.104,12.38,105.8128,14.15,15.19,25.97,0,110.5,13.29,14.95,98.7
"2009-10-08 00:17:30",1307841,2.367,145.2,2.233,0.107,13.16,105.8128,14.15,15.19,25.64,0,110.5,13.29,14.95,107.2
"2009-10-08 00:18:00",1307842,2.334,149.4,1.529,0.098,13.47,105.8055,14.13,15.16,25.71,0,110.5,13.29,14.94,111.4
"2009-10-08 00:18:30",1307843,2.313,149.2,2.158,0.151,13.64,105.7877,14.09,15.15,25.71,0,110.5,13.29,14.89,111.2
"2009-10-08 00:19:00",1307844,2.207,150.3,2.598,0.115,13.86,105.779,14.07,15.15,25.68,0,110.5,13.3,14.87,112.3
"2009-10-08 00:19:30",1307845,3.298,158.4,8.02,1.432,16.13,105.779,14.07,15.28,25.75,0,110.5,13.26,14.87,120.4
"2009-10-08 00:20:00",1307846,2.733,147,5.796,1.166,15.79,105.7793,14.07,15.28,25.82,0,110.5,13.26,14.87,109.0
"2009-10-08 00:20:30",1307847,1.137,155.4,8.35,0.288,13.87,105.7757,14.06,15.11,26.01,0,110.5,13.3,14.86,117.4
"2009-10-08 00:21:00",1307848,1.874,151.6,4.681,0.278,13.81,105.7535,14,15.1,26.26,0,110.5,13.3,14.80,113.6
"2009-10-08 00:21:30",1307849,2.116,148.4,3.295,0.068,14.2,105.7541,14,15.18,25.96,0,110.5,13.3,14.80,110.4
"2009-10-08 00:22:00",1307850,3.267,151.1,7.214,1.34,15.51,105.7607,14.02,15.14,25.9,0,110.5,13.26,14.82,113.1
"2009-10-08 00:22:30",1307851,2.616,147.7,3.414,0.747,14.6,105.7663,14.03,15.18,25.82,0,110.5,13.26,14.84,109.7
"2009-10-08 00:23:00",1307852,2.656,144.9,1.177,0.084,13.74,105.7539,14,15.04,25.73,0,110.5,13.3,14.80,106.9
"2009-10-08 00:23:30",1307853,3.43,149.3,6.748,1.263,16.04,105.739,13.96,15.2,26.01,0,110.5,13.26,14.77,111.3
"2009-10-08 00:24:00",1307854,3.733,139.1,8.68,1.464,15.45,105.745,13.98,15.03,26.18,0,110.5,13.26,14.78,101.1
"2009-10-08 00:24:30",1307855,2.629,138.9,7.684,0.88,13.47,105.7451,13.98,15.12,26.5,0,110.5,13.26,14.78,100.9
"2009-10-08 00:25:00",1307856,3.361,147.3,7.902,1.266,14.62,105.726,13.93,15.02,26.65,0,110.5,13.26,14.73,109.3
"2009-10-08 00:25:30",1307857,2.358,132.5,3.667,0.207,12.52,105.7133,13.9,14.96,26.82,0,110.5,13.3,14.70,94.5
"2009-10-08 00:26:00",1307858,2.099,133.3,4.296,0.113,12.66,105.7133,13.9,14.95,27.31,0,110.5,13.3,14.70,95.3
"2009-10-08 00:26:30",1307859,2.703,140.5,7.942,0.956,13.52,105.7049,13.88,14.92,27.43,0,110.5,13.27,14.68,102.5
"2009-10-08 00:27:00",1307860,3.583,136.6,5.781,1.079,14.65,105.6804,13.81,14.97,26.98,0,110.5,13.27,14.61,98.6
"2009-10-08 00:27:30",1307861,4.039,137.2,8.68,1.536,15.66,105.6795,13.81,14.96,26.47,0,110.5,13.27,14.61,99.2
"2009-10-08 00:28:00",1307862,2.362,122.2,2.957,0.181,13.4,105.6725,13.79,14.85,26.75,0,110.5,13.31,14.59,84.2
"2009-10-08 00:28:30",1307863,2.61,127.3,4.442,0.185,13.53,105.6511,13.74,14.84,27.05,0,110.5,13.31,14.54,89.3
"2009-10-08 00:29:00",1307864,3.855,137.6,6.071,1.204,15.71,105.6457,13.73,14.95,27.02,0,110.5,13.28,14.53,99.6
"2009-10-08 00:29:30",1307865,3.23,138.1,7.186,0.726,14.31,105.6454,13.72,14.95,26.78,0,110.4,13.28,14.52,100.1
"2009-10-08 00:30:00",1307866,2.839,132.8,3.299,0.342,13.55,105.622,13.66,14.77,26.93,0,110.5,13.3,14.46,94.8
"2009-10-08 00:30:30",1307867,2.268,133.6,4.573,0.286,13.66,105.6119,13.64,14.85,27.16,0,110.5,13.3,14.44,95.6
"2009-10-08 00:31:00",1307868,3.276,138.4,6.988,1.457,16.06,105.6119,13.64,14.82,26.82,0,110.5,13.27,14.44,100.4
"2009-10-08 00:31:30",1307869,2.418,134.8,7.973,0.698,13.46,105.6015,13.61,14.76,27.73,0,110.5,13.27,14.41,96.8
"2009-10-08 00:32:00",1307870,3.807,146.4,7.708,1.455,15.76,105.5795,13.56,14.81,26.88,0,110.4,13.27,14.36,108.4
"2009-10-08 00:32:30",1307871,2.611,137,2.363,0.128,13.11,105.5781,13.55,14.66,26.46,0,110.4,13.31,14.35,99.0
"2009-10-08 00:33:00",1307872,2.738,134.5,2.294,0.181,12.99,105.5781,13.55,14.62,26.45,0,110.4,13.31,14.35,96.5
"2009-10-08 00:33:30",1307873,2.826,126.2,3.521,0.178,12.9,105.5683,13.53,14.6,27.07,0,110.4,13.31,14.33,88.2
"2009-10-08 00:34:00",1307874,1.964,117.6,11.9,1.207,14.25,105.552,13.49,14.7,27.89,0,110.4,13.27,14.28,79.6
"2009-10-08 00:34:30",1307875,2.471,122.5,6.783,1.274,14.94,105.5517,13.48,14.61,28.2,0,110.4,13.28,14.28,84.5
"2009-10-08 00:35:00",1307876,1.528,126,4.581,0.234,13.19,105.5556,13.49,14.57,28.2,0,110.4,13.32,14.29,88.0
"2009-10-08 00:35:30",1307877,2.104,124.6,6.923,0.183,13.3,105.5553,13.49,14.55,27.56,0,110.4,13.32,14.29,86.6
"2009-10-08 00:36:00",1307878,2.29,122.7,10.46,0.703,14.19,105.5434,13.46,14.68,27.93,0,110.4,13.29,14.26,84.7
"2009-10-08 00:36:30",1307879,2.581,117.4,5.376,1.135,14.73,105.5354,13.44,14.51,28.21,0,110.4,13.29,14.24,79.4
"2009-10-08 00:37:00",1307880,2.188,117.6,3.283,0.184,13.45,105.5402,13.46,14.49,27.55,0,110.4,13.32,14.25,79.6
"2009-10-08 00:37:30",1307881,1.896,119.4,10.33,0.243,13.17,105.5421,13.46,14.47,28.19,0,110.4,13.32,14.26,81.4
"2009-10-08 00:38:00",1307882,1.745,121.5,12.24,1.231,14.74,105.5264,13.42,14.63,28.61,0,110.4,13.29,14.22,83.5
"2009-10-08 00:38:30",1307883,2.906,134.8,5.498,0.932,14.68,105.512,13.38,14.45,27.94,0,110.4,13.29,14.18,96.8
"2009-10-08 00:39:00",1307884,3.652,139.2,7.528,1.344,15.84,105.5123,13.38,14.51,26.86,0,110.4,13.29,14.18,101.2
"2009-10-08 00:39:30",1307885,2.463,137.6,5.869,0.876,14.01,105.5123,13.38,14.6,27.49,0,110.4,13.29,14.18,99.6
"2009-10-08 00:40:00",1307886,2.121,136,1.241,0.074,13.03,105.4954,13.34,14.4,26.77,0,110.4,13.33,14.14,98.0
"2009-10-08 00:40:30",1307887,2.335,131.8,3.729,0.149,12.83,105.4794,13.3,14.37,26.79,0,110.4,13.33,14.10,93.8
"2009-10-08 00:41:00",1307888,2.153,135.2,5.056,0.067,13.26,105.4785,13.3,14.36,26.75,0,110.4,13.33,14.10,97.2
"2009-10-08 00:41:30",1307889,2.07,140.3,3.44,0.109,13.72,105.4785,13.3,14.35,26.84,0,110.4,13.33,14.10,102.3
"2009-10-08 00:42:00",1307890,2.106,138.8,3.786,0.562,14.38,105.4757,13.29,14.46,27.22,0,110.4,13.29,14.09,100.8
"2009-10-08 00:42:30",1307891,3.21,137.1,7.672,1.249,15.7,105.458,13.24,14.36,26.85,0,110.4,13.29,14.04,99.1
"2009-10-08 00:43:00",1307892,2.26,130.4,0.597,0.03,14,105.4453,13.21,14.31,26.7,0,110.4,13.33,14.01,92.4
"2009-10-08 00:43:30",1307893,2.242,127.4,1.426,0.036,13.88,105.4447,13.21,14.29,26.7,0,110.4,13.33,14.01,89.4
"2009-10-08 00:44:00",1307894,3.314,129.3,5.901,1.322,16.06,105.4447,13.21,14.41,26.85,0,110.4,13.3,14.01,91.3
"2009-10-08 00:44:30",1307895,2.232,120.5,5.622,0.666,14.64,105.4447,13.21,14.38,26.86,0,110.4,13.3,14.01,82.5
"2009-10-08 00:45:00",1307896,2.136,116.1,1.998,0.074,13.78,105.4447,13.21,14.26,26.8,0,110.4,13.33,14.01,78.1
"2009-10-08 00:45:30",1307897,2.194,112.1,1.667,0.036,13.79,105.4441,13.21,14.25,26.84,0,110.4,13.33,14.01,74.1
"2009-10-08 00:46:00",1307898,2.189,107,0.799,0.063,13.89,105.4422,13.2,14.24,26.86,0,110.4,13.33,14.00,69.0
"2009-10-08 00:46:30",1307899,2.947,101.8,5.531,1.379,15.88,105.444,13.21,14.41,27.08,0,110.4,13.29,14.01,63.8
"2009-10-08 00:47:00",1307900,2.503,89,8.41,1.219,14.54,105.4458,13.21,14.29,27.06,0,110.4,13.29,14.01,51.0
"2009-10-08 00:47:30",1307901,1.941,63.86,11.11,0.815,14.47,105.4466,13.22,14.41,27.72,0,110.4,13.29,14.01,25.9
"2009-10-08 00:48:00",1307902,2.501,31.7,10.64,1.234,14.45,105.4498,13.22,14.23,28.11,0,110.4,13.29,14.02,353.7
"2009-10-08 00:48:30",1307903,1.291,26.4,6.236,0.209,12.74,105.4506,13.23,14.2,28.27,0,110.3,13.33,14.02,348.4
"2009-10-08 00:49:00",1307904,1.511,24.38,7.099,0.265,12.55,105.4389,13.2,14.21,28.41,0,110.4,13.33,13.99,346.4
"2009-10-08 00:49:30",1307905,1.667,26.08,6.862,0.208,12.74,105.4382,13.19,14.3,28.79,0,110.4,13.33,13.99,348.1
"2009-10-08 00:50:00",1307906,3.147,25.97,6.636,1.134,14.87,105.44,13.2,14.26,28.93,0,110.3,13.29,14.00,348.0
"2009-10-08 00:50:30",1307907,2.02,24.98,4.638,0.359,13.33,105.4412,13.2,14.31,29.09,0,110.3,13.33,14.00,347.0
"2009-10-08 00:51:00",1307908,2.092,18.49,7.818,0.804,12.97,105.4442,13.21,14.19,29.24,0,110.3,13.3,14.01,340.5
"2009-10-08 00:51:30",1307909,3.377,32.15,7.856,1.396,15.17,105.4454,13.21,14.33,29.55,0,110.3,13.31,14.01,354.1
"2009-10-08 00:52:00",1307910,2.066,27.64,4.817,0.414,12.96,105.4277,13.17,14.18,29.35,0,110.3,13.31,13.97,349.6
"2009-10-08 00:52:30",1307911,1.445,22.28,30.93,0.336,12.87,105.4136,13.13,14.17,29.22,0,110.3,13.34,13.93,344.3
"2009-10-08 00:53:00",1307912,2.02,23.4,2.949,0.239,12.88,105.4127,13.13,14.15,29.43,0,110.3,13.34,13.93,345.4
"2009-10-08 00:53:30",1307913,2.173,21.02,3.281,0.258,13.1,105.4127,13.13,14.14,29.57,0,110.3,13.34,13.93,343.0
"2009-10-08 00:54:00",1307914,2.373,26.18,3.824,0.199,13.36,105.4085,13.12,14.12,29.58,0,110.3,13.34,13.92,348.2
"2009-10-08 00:54:30",1307915,3.745,30.33,6.778,1.462,16.23,105.3927,13.08,14.33,29.68,0,110.3,13.31,13.88,352.3
"2009-10-08 00:55:00",1307916,4.517,31.83,5.975,1.224,17.54,105.3789,13.04,14.35,29.95,0,110.3,13.31,13.84,353.8
"2009-10-08 00:55:30",1307917,2.556,20.82,3.498,0.562,13.25,105.3789,13.04,14.08,29.81,0,110.3,13.31,13.84,342.8
"2009-10-08 00:56:00",1307918,3.289,21.8,9.18,1.417,14.06,105.3772,13.04,14.08,29.87,0,110.3,13.31,13.84,343.8
"2009-10-08 00:56:30",1307919,3.212,28.27,8.08,1.363,14.74,105.3552,12.98,14.23,30.03,0,110.3,13.31,13.78,350.3
"2009-10-08 00:57:00",1307920,2.619,28.57,3.821,0.856,12.82,105.3451,12.96,14.03,29.77,0,110.3,13.31,13.75,350.6
"2009-10-08 00:57:30",1307921,2.875,25.91,6.527,1.155,13.88,105.3451,12.96,14.18,29.78,0,110.3,13.31,13.75,347.9
"2009-10-08 00:58:00",1307922,3,22.77,7.515,1.264,13.58,105.3451,12.96,14.09,29.89,0,110.3,13.31,13.75,344.8
"2009-10-08 00:58:30",1307923,2.532,20.57,6.236,1.171,13.86,105.3296,12.92,14.05,30.22,0,110.3,13.31,13.71,342.6
"2009-10-08 00:59:00",1307924,2.281,20.31,2.893,0.166,12.63,105.3115,12.87,13.98,30.2,0,110.3,13.35,13.67,342.3
"2009-10-08 00:59:30",1307925,1.844,15,4.291,0.36,12.76,105.3112,12.87,13.96,30.14,0,110.3,13.35,13.67,337.0
"2009-10-08 01:00:00",1307926,1.761,15.07,3.301,0.291,12.97,105.3112,12.87,13.93,30.32,0,110.3,13.35,13.67,337.1
"2009-10-08 01:00:30",1307927,2.27,17.05,4.085,0.391,13.26,105.3002,12.84,13.92,30.32,0,110.3,13.35,13.64,339.0
"2009-10-08 01:01:00",1307928,1.917,359.5,6.087,0.378,13.56,105.2788,12.79,13.9,30.32,0,110.3,13.35,13.58,321.5
"2009-10-08 01:01:30",1307929,3.27,4.996,8.35,1.339,15.66,105.278,12.78,13.92,30.58,0,110.3,13.32,13.58,327.0
"2009-10-08 01:02:00",1307930,3.66,6.307,7.41,1.403,16.88,105.2777,12.78,14.13,30.96,0,110.3,13.32,13.58,328.3
"2009-10-08 01:02:30",1307931,2.93,5.53,7.808,1.311,15.76,105.273,12.77,14.06,30.93,0,110.3,13.31,13.57,327.5
"2009-10-08 01:03:00",1307932,3.076,11.31,7.156,1.53,14.76,105.247,12.7,13.93,30.74,0,110.3,13.31,13.50,333.3
"2009-10-08 01:03:30",1307933,2.601,10.46,4.286,0.376,12.43,105.2468,12.7,13.86,30.72,0,110.3,13.35,13.50,332.5
"2009-10-08 01:04:00",1307934,2.088,15.37,2.699,0.22,12.41,105.2483,12.71,13.9,30.72,0,110.3,13.31,13.50,337.4
"2009-10-08 01:04:30",1307935,3.606,20.67,5.641,1.379,14.34,105.2477,12.71,13.83,30.61,0,110.3,13.31,13.50,342.7
"2009-10-08 01:05:00",1307936,2.493,16.83,1.535,0.122,12.27,105.242,12.69,13.77,30.6,0,110.3,13.35,13.49,338.8
"2009-10-08 01:05:30",1307937,2.778,21.02,2.393,0.186,12.35,105.2209,12.64,13.75,30.57,0,110.3,13.35,13.43,343.0
"2009-10-08 01:06:00",1307938,2.857,23.54,2.694,0.258,12.65,105.2201,12.64,13.75,30.49,0,110.3,13.35,13.43,345.5
"2009-10-08 01:06:30",1307939,2.782,20.7,1.539,0.149,13,105.2225,12.64,13.74,30.44,0,110.3,13.35,13.44,342.7
"2009-10-08 01:07:00",1307940,2.814,23.45,1.717,0.219,13.31,105.2246,12.65,13.72,30.46,0,110.3,13.35,13.44,345.5
"2009-10-08 01:07:30",1307941,2.984,21.4,2.094,0.232,13.67,105.2196,12.63,13.7,30.35,0,110.3,13.35,13.43,343.4
"2009-10-08 01:08:00",1307942,3.771,23.4,4.604,1.163,14.61,105.2102,12.61,13.69,30.44,0,110.3,13.32,13.41,345.4
"2009-10-08 01:08:30",1307943,4.363,25.48,6.579,1.338,16.53,105.2002,12.58,13.94,30.75,0,110.3,13.32,13.38,347.5
"2009-10-08 01:09:00",1307944,5.397,30.04,5.873,1.235,17.84,105.2011,12.59,13.97,30.84,0,110.3,13.32,13.38,352.0
"2009-10-08 01:09:30",1307945,4.207,22.7,6.798,1.256,14.94,105.202,12.59,13.78,30.94,0,110.3,13.32,13.39,344.7
"2009-10-08 01:10:00",1307946,4.78,24.59,7.15,1.443,14.58,105.2065,12.6,13.74,31.02,0,110.3,13.32,13.40,346.6
"2009-10-08 01:10:30",1307947,3.744,20.94,3.773,0.56,12.75,105.2071,12.6,13.74,31.03,0,110.3,13.32,13.40,342.9
"2009-10-08 01:11:00",1307948,3.796,19.42,1.524,0.149,12.2,105.2106,12.61,13.63,30.93,0,110.3,13.36,13.41,341.4
"2009-10-08 01:11:30",1307949,3.829,18.5,1.092,0.192,12.4,105.2089,12.61,13.61,31.11,0,110.3,13.36,13.40,340.5
"2009-10-08 01:12:00",1307950,3.984,18.45,1.616,0.349,12.76,105.198,12.58,13.6,31.34,0,110.3,13.36,13.38,340.5
"2009-10-08 01:12:30",1307951,3.838,17.99,1.256,0.135,13.16,105.1853,12.55,13.6,31.54,0,110.3,13.36,13.34,340.0
"2009-10-08 01:13:00",1307952,3.953,17.64,1.402,0.209,13.54,105.1788,12.53,13.58,31.61,0,110.3,13.36,13.33,339.6
"2009-10-08 01:13:30",1307953,4.818,21.82,6.175,1.325,15.04,105.1777,12.53,13.6,31.62,0,110.3,13.33,13.32,343.8
"2009-10-08 01:14:00",1307954,5.76,27.02,6.509,1.277,17.64,105.1777,12.53,13.83,31.93,0,110.3,13.33,13.32,349.0
"2009-10-08 01:14:30",1307955,5.253,22.69,6.89,1.206,15.82,105.1777,12.53,13.75,31.9,0,110.4,13.33,13.32,344.7
"2009-10-08 01:15:00",1307956,5.978,26.66,6.869,1.244,16.56,105.1777,12.53,13.8,32.1,0,110.3,13.33,13.32,348.7
"2009-10-08 01:15:30",1307957,5.949,25.85,6.957,1.395,15.27,105.1777,12.53,13.65,31.98,0,110.3,13.32,13.32,347.9
"2009-10-08 01:16:00",1307958,4.315,18.81,1.229,0.174,12.12,105.176,12.52,13.53,31.87,0,110.3,13.36,13.32,340.8
"2009-10-08 01:16:30",1307959,4.232,20.67,1.733,0.236,12.19,105.1692,12.51,13.53,31.72,0,110.3,13.36,13.30,342.7
"2009-10-08 01:17:00",1307960,4.051,18.51,1.87,0.246,12.55,105.1667,12.5,13.52,31.72,0,110.3,13.36,13.29,340.5
"2009-10-08 01:17:30",1307961,4.318,19.03,1.012,0.207,12.99,105.1613,12.49,13.51,31.66,0,110.3,13.36,13.28,341.0
"2009-10-08 01:18:00",1307962,4.373,19.7,1.463,0.192,13.4,105.1526,12.46,13.49,31.78,0,110.3,13.36,13.26,341.7
"2009-10-08 01:18:30",1307963,4.162,21.74,2.545,0.275,13.79,105.1449,12.44,13.51,31.74,0,110.3,13.33,13.24,343.7
"2009-10-08 01:19:00",1307964,4.876,29.93,7.391,1.343,16.18,105.1438,12.44,13.67,31.59,0,110.3,13.33,13.24,351.9
"2009-10-08 01:19:30",1307965,5.425,27.37,7.9,1.327,16.47,105.1438,12.44,13.7,31.65,0,110.3,13.33,13.24,349.4
"2009-10-08 01:20:00",1307966,5.304,23.76,5.775,1.109,14.97,105.1438,12.44,13.61,31.93,0,110.3,13.33,13.24,345.8
"2009-10-08 01:20:30",1307967,6.133,28.55,6.686,1.272,16.19,105.1438,12.44,13.75,32.15,0,110.3,13.33,13.24,350.5
"2009-10-08 01:21:00",1307968,4.662,21.02,5.846,1.095,13.88,105.1438,12.44,13.65,31.99,0,110.3,13.33,13.24,343.0
"2009-10-08 01:21:30",1307969,4.435,20.41,1.29,0.155,12.34,105.1438,12.44,13.49,31.81,0,110.3,13.36,13.24,342.4
"2009-10-08 01:22:00",1307970,4.448,20.92,1.692,0.213,12.42,105.1438,12.44,13.47,31.72,0,110.3,13.36,13.24,342.9
"2009-10-08 01:22:30",1307971,4.003,18.84,1.968,0.415,12.78,105.1438,12.44,13.48,31.79,0,110.3,13.36,13.24,340.8
"2009-10-08 01:23:00",1307972,4.135,21.89,2.529,0.235,13.19,105.1438,12.44,13.47,31.74,0,110.3,13.36,13.24,343.9
"2009-10-08 01:23:30",1307973,4.498,22.98,4.238,0.717,14.35,105.1438,12.44,13.53,31.61,0,110.3,13.33,13.24,345.0
"2009-10-08 01:24:00",1307974,5.485,24.2,6.399,1.313,15.42,105.1438,12.44,13.53,31.8,0,110.3,13.33,13.24,346.2
"2009-10-08 01:24:30",1307975,5.859,27.74,6.56,1.354,16.93,105.1438,12.44,13.76,32.22,0,110.3,13.33,13.24,349.7
"2009-10-08 01:25:00",1307976,6.868,30.48,6.147,1.246,17.55,105.1438,12.44,13.67,32.08,0,110.3,13.33,13.24,352.5
"2009-10-08 01:25:30",1307977,6.004,27.38,5.527,1.428,15.77,105.1438,12.44,13.57,31.88,0,110.3,13.33,13.24,349.4
"2009-10-08 01:26:00",1307978,4.534,22.46,5.896,1.198,13.46,105.1438,12.44,13.47,31.58,0,110.3,13.33,13.24,344.5
"2009-10-08 01:26:30",1307979,4.947,24.2,7.122,1.186,14.94,105.1438,12.44,13.66,31.61,0,110.3,13.33,13.24,346.2
"2009-10-08 01:27:00",1307980,3.744,17.35,1.335,0.555,12.52,105.1438,12.44,13.47,31.48,0,110.3,13.33,13.24,339.4
"2009-10-08 01:27:30",1307981,4.113,18.89,0.935,0.25,12.6,105.1438,12.44,13.47,31.65,0,110.3,13.36,13.24,340.9
"2009-10-08 01:28:00",1307982,3.854,17.6,1.148,0.204,12.96,105.1438,12.44,13.47,31.62,0,110.3,13.36,13.24,339.6
"2009-10-08 01:28:30",1307983,4.037,18.44,1.273,0.314,13.34,105.1438,12.44,13.49,31.59,0,110.3,13.36,13.24,340.4
"2009-10-08 01:29:00",1307984,5.212,24.04,7.12,1.373,15.89,105.1438,12.44,13.53,31.59,0,110.3,13.33,13.24,346.0
"2009-10-08 01:29:30",1307985,5.354,24.42,6.952,1.287,16.14,105.1438,12.44,13.63,31.6,0,110.3,13.33,13.24,346.4
"2009-10-08 01:30:00",1307986,5,26.12,7.783,1.136,15.26,105.1438,12.44,13.55,31.41,0,110.3,13.33,13.24,348.1
"2009-10-08 01:30:30",1307987,5.519,33.37,6.816,1.324,16.5,105.1438,12.44,13.74,31.51,0,110.3,13.33,13.24,355.4
"2009-10-08 01:31:00",1307988,5.554,29.12,6.18,1.443,15.84,105.1441,12.44,13.61,31.52,0,110.3,13.33,13.24,351.1
"2009-10-08 01:31:30",1307989,4.362,24.34,1.541,0.3,12.78,105.1464,12.45,13.49,31.38,0,110.3,13.36,13.24,346.3
"2009-10-08 01:32:00",1307990,6.027,31.19,6.906,1.307,15.22,105.1548,12.47,13.6,31.55,0,110.3,13.33,13.26,353.2
"2009-10-08 01:32:30",1307991,4.807,27.01,5.306,0.935,14.06,105.165,12.49,13.68,31.69,0,110.3,13.33,13.29,349.0
"2009-10-08 01:33:00",1307992,4.521,24.29,1.948,0.387,12.95,105.1661,12.5,13.5,31.53,0,110.3,13.36,13.29,346.3
"2009-10-08 01:33:30",1307993,4.336,25.24,1.891,0.348,13.07,105.1715,12.51,13.51,31.44,0,110.3,13.36,13.31,347.2
"2009-10-08 01:34:00",1307994,4.875,26.78,5.792,1.067,14.39,105.1777,12.53,13.66,31.57,0,110.2,13.33,13.32,348.8
"2009-10-08 01:34:30",1307995,5.066,30.23,6.88,1.183,14.91,105.1777,12.53,13.59,31.43,0,110.3,13.33,13.32,352.2
"2009-10-08 01:35:00",1307996,4.633,25.07,0.966,0.229,13.72,105.178,12.53,13.55,31.39,0,110.3,13.37,13.32,347.1
"2009-10-08 01:35:30",1307997,6.523,31.75,6.403,1.489,16.72,105.178,12.53,13.72,31.61,0,110.3,13.33,13.32,353.8
"2009-10-08 01:36:00",1307998,6.335,29.35,7.057,1.282,15.91,105.178,12.53,13.75,31.59,0,110.3,13.33,13.32,351.4
"2009-10-08 01:36:30",1307999,6.043,29.56,6.745,1.335,15.54,105.1788,12.53,13.7,31.53,0,110.3,13.33,13.33,351.6
"2009-10-08 01:37:00",1308000,4.844,24.47,0.933,0.205,12.81,105.1788,12.53,13.56,31.37,0,110.3,13.36,13.33,346.5
"2009-10-08 01:37:30",1308001,5.258,29.16,6.13,1.212,14.44,105.1817,12.54,13.73,31.56,0,110.3,13.33,13.33,351.2
"2009-10-08 01:38:00",1308002,5.241,29.15,5.149,1.31,13.94,105.1913,12.56,13.62,31.29,0,110.3,13.33,13.36,351.1
"2009-10-08 01:38:30",1308003,4.468,26.99,1.447,0.232,13.08,105.2022,12.59,13.58,31.23,0,110.3,13.36,13.39,349.0
"2009-10-08 01:39:00",1308004,5.53,33.2,6.974,1.327,15.46,105.2152,12.62,13.71,31.34,0,110.3,13.33,13.42,355.2
"2009-10-08 01:39:30",1308005,4.901,31.86,6.296,1.111,14.95,105.2186,12.63,13.76,31.23,0,110.3,13.33,13.43,353.9
"2009-10-08 01:40:00",1308006,4.633,30.24,5.828,0.92,14.55,105.2195,12.63,13.76,31.19,0,110.3,13.33,13.43,352.2
"2009-10-08 01:40:30",1308007,4.613,31.42,4.728,1.114,14.11,105.2207,12.64,13.71,31.1,0,110.3,13.33,13.43,353.4
"2009-10-08 01:41:00",1308008,5.548,36.51,6.995,1.38,16.49,105.2222,12.64,13.78,31.14,0,110.3,13.33,13.44,358.5
"2009-10-08 01:41:30",1308009,4.618,32.75,6.91,1.374,14.67,105.2228,12.64,13.8,31.18,0,110.3,13.33,13.44,354.8
"2009-10-08 01:42:00",1308010,5.101,34.2,4.446,0.872,13.53,105.226,12.65,13.63,30.99,0,110.3,13.33,13.45,356.2
"2009-10-08 01:42:30",1308011,5.312,34.62,1.482,0.372,12.82,105.2312,12.66,13.64,31.05,0,110.3,13.37,13.46,356.6
"2009-10-08 01:43:00",1308012,6.801,42.19,6.733,1.313,15.56,105.236,12.68,13.83,31.16,0,110.3,13.33,13.47,4.2
"2009-10-08 01:43:30",1308013,5.623,35.83,3.614,0.524,13.89,105.246,12.7,13.81,31.02,0,110.3,13.37,13.50,357.8
"2009-10-08 01:44:00",1308014,6.797,42.05,7.31,1.434,15.56,105.2592,12.74,13.81,30.95,0,110.3,13.34,13.53,4.0
"2009-10-08 01:44:30",1308015,6.016,38.52,4.854,0.815,14.48,105.2655,12.75,13.84,30.72,0,110.3,13.34,13.55,0.5
"2009-10-08 01:45:00",1308016,6.98,42.9,7.219,1.354,15.42,105.2667,12.76,13.83,30.53,0,110.3,13.34,13.55,4.9
"2009-10-08 01:45:30",1308017,6.528,42.22,6.916,1.08,14.73,105.2679,12.76,13.84,30.2,0,110.3,13.34,13.55,4.2
"2009-10-08 01:46:00",1308018,7.061,45.09,5.95,1.264,15.47,105.2694,12.76,13.88,30.01,0,110.3,13.34,13.56,7.1
"2009-10-08 01:46:30",1308019,6.207,41.99,5.495,0.76,13.86,105.267,12.76,13.83,29.91,0,110.3,13.34,13.55,4.0
"2009-10-08 01:47:00",1308020,5.931,41.51,1.862,0.157,12.89,105.27,12.76,13.72,29.53,0,110.3,13.37,13.56,3.5